FENGYUN 1C DEB, 31642

Orbit data source: Space-Track

FENGYUN 1C DEB, 31642 is space debris in SSO originally from a launch on Mon, 10 May 1999 UTC launched from the Taiyaun Space Center, China (TSC). Fengyun 1C debris stems from the Chinese weather satellite Fengyun-1C, which was intentionally destroyed by a Chinese anti-satellite missile in 2007. This event dramatically increased the amount of space debris, with thousands of trackable fragments posing hazards to satellites and human spaceflight. The Fengyun 1C debris cloud has become a focal point in discussions about space sustainability and the need for international regulations to prevent the creation of new debris.

Loading next visibility...
Identifier
31642, 1999-025CAY
Orbit
SSO
Country
Flag of CNCN / PRC
Related business
Manufacturer
Unknown
Mission
Spacecraft
Bus & Motor
Unknown
Mass
Unknown
Launch date (UTC)
1999-05-10 (26 years ago)
Launch vehicle
Unknown
Launch site
Taiyaun Space Center, China (TSC)
Object type
Payload
Rocket body
Debris
Shape & HBR
Unknown shape, 0.1 m
Radar Cross Section
Small (<0.1 m²)

Expand to show TLE details & history
Last TLE update: 20 hours ago

TLE from 20 hours ago
0 FENGYUN 1C DEB
1 31642U 99025CAY 25291.19897351  .00001235  00000-0  42869-3 0  9996
2 31642  98.5075  14.3551 0121077  61.5668 299.7655 14.33248627962236
Epoch: 2025-10-18T04:46Z
TLE epoch observation values (Epoch: 2025-10-18T04:46:31.311Z)
Latitude
Longitude
-84.20879°
Altitude
741.589 km
Speed
7.506 km/s
True Right ascension
00h 57m 25s
True Declination
0° 00' 00"
Sunlit
Object was in full shadow at epoch
Visualization orbit readout
Latitude
Unknown
Longitude
Unknown
Altitude
Unknown
Speed
Unknown
Apparent Right ascension
Unknown
Apparent Declination
Unknown
Sunlit
N/A
Visualization observer readout
Local Sidereal Time
19:25:05
Azimuth
Unknown
Elevation
Unknown
Doppler factor
Unknown
Orbital elements
Apogee altitude
864.668 km
Perigee altitude
691.378 km
Semi-major axis
7,156.16 km
Eccentricity
0.01211
Inclination
98.5075°
RAAN
14.3551°
Arg. of periapsis
61.5668°
True anomaly
298.55209°
Mean anomaly
299.7655°
Eccentric anomaly
299.1597°
Mean motion
3.58528 °/min
Orbital period
100.41 mins
BSTAR
0.00042869
Loading maneuver chart data...
Computing Atmospheric mass density...

Documentation

Showing up to 5 results
|